| time (UTC) | temp C | wind direction | speed KPH | gust KPH | rain 1hr cm | rain 24hr cm | rain mn cm | humidity % | barometer mb |
| 20260505065507 | 17 | 242 | 6.4 | 25.7 | 0.00 | 0.00 | 0.00 | 68 | 1012.0 |
| 20260505065005 | 17 | 227 | 8.0 | 25.7 | 0.00 | 0.00 | 0.00 | 68 | 1012.0 |
| 20260505064537 | 17 | 227 | 6.4 | 24.1 | 0.00 | 0.00 | 0.00 | 68 | 1012.0 |
| 20260505064003 | 17 | 209 | 6.4 | 24.1 | 0.00 | 0.00 | 0.00 | 68 | 1012.0 |
| 20260505063503 | 17 | 248 | 9.7 | 22.5 | 0.00 | 0.00 | 0.00 | 68 | 1012.0 |
| 20260505063013 | 17 | 241 | 12.9 | 22.5 | 0.00 | 0.00 | 0.00 | 68 | 1012.0 |
| 20260505062504 | 17 | 248 | 8.0 | 24.1 | 0.00 | 0.00 | 0.00 | 68 | 1012.1 |
| 20260505062003 | 17 | 267 | 6.4 | 24.1 | 0.00 | 0.00 | 0.00 | 68 | 1012.1 |
| 20260505061527 | 17 | 178 | 12.9 | 20.9 | 0.00 | 0.00 | 0.00 | 68 | 1012.1 |
| 20260505061003 | 17 | 205 | 8.0 | 20.9 | 0.00 | 0.00 | 0.00 | 68 | 1012.1 |
| 20260505060506 | 17 | 207 | 3.2 | 20.9 | 0.00 | 0.00 | 0.00 | 68 | 1012.1 |
| 20260505060018 | 17 | 199 | 6.4 | 20.9 | 0.00 | 0.00 | 0.00 | 67 | 1012.1 |
| 20260505055506 | 17 | 247 | 8.0 | 22.5 | 0.00 | 0.00 | 0.00 | 67 | 1012.1 |
| 20260505055007 | 17 | 238 | 9.7 | 22.5 | 0.00 | 0.00 | 0.00 | 67 | 1012.2 |
| 20260505054530 | 17 | 225 | 6.4 | 19.3 | 0.00 | 0.00 | 0.00 | 67 | 1012.1 |
| 20260505054007 | 17 | 248 | 9.7 | 19.3 | 0.00 | 0.00 | 0.00 | 67 | 1012.2 |
| 20260505053507 | 17 | 180 | 11.3 | 20.9 | 0.00 | 0.00 | 0.00 | 67 | 1012.2 |
| 20260505053015 | 17 | 231 | 8.0 | 20.9 | 0.00 | 0.00 | 0.00 | 66 | 1012.3 |
| 20260505052505 | 17 | 208 | 8.0 | 16.1 | 0.00 | 0.00 | 0.00 | 66 | 1012.3 |
| 20260505052006 | 17 | 245 | 4.8 | 17.7 | 0.00 | 0.00 | 0.00 | 65 | 1012.2 |
| 20260505051520 | 17 | 222 | 6.4 | 17.7 | 0.00 | 0.00 | 0.00 | 65 | 1012.2 |
| 20260505051006 | 17 | 257 | 8.0 | 14.5 | 0.00 | 0.00 | 0.00 | 64 | 1012.1 |
| 20260505050503 | 17 | 229 | 3.2 | 16.1 | 0.00 | 0.00 | 0.00 | 64 | 1012.2 |
| 20260505041521 | 17 | 234 | 3.2 | 11.3 | 0.00 | 0.00 | 0.00 | 62 | 1012.0 |
| 20260505041007 | 17 | 238 | 4.8 | 11.3 | 0.00 | 0.00 | 0.00 | 62 | 1012.0 |
| 20260505040510 | 17 | 217 | 3.2 | 12.9 | 0.00 | 0.00 | 0.00 | 63 | 1012.0 |
| 20260505040027 | 17 | 243 | 3.2 | 12.9 | 0.00 | 0.00 | 0.00 | 63 | 1012.0 |
| 20260505035510 | 17 | 238 | 1.6 | 14.5 | 0.00 | 0.00 | 0.00 | 63 | 1011.9 |
| 20260505035007 | 17 | 227 | 3.2 | 14.5 | 0.00 | 0.00 | 0.00 | 64 | 1011.8 |
| 20260505034522 | 17 | 234 | 4.8 | 8.0 | 0.00 | 0.00 | 0.00 | 64 | 1011.8 |
| 20260505034006 | 17 | 246 | 1.6 | 8.0 | 0.00 | 0.00 | 0.00 | 65 | 1011.8 |
| 20260505033506 | 17 | 245 | 0.0 | 9.7 | 0.00 | 0.00 | 0.00 | 65 | 1011.9 |
| 20260505033021 | 17 | 239 | 4.8 | 9.7 | 0.00 | 0.00 | 0.00 | 66 | 1011.9 |
| 20260505032506 | 17 | 249 | 0.0 | 0.0 | 0.00 | 0.00 | 0.00 | 66 | 1011.9 |
| 20260505032007 | 17 | 246 | 0.0 | 0.0 | 0.00 | 0.00 | 0.00 | 66 | 1011.9 |
| 20260505031539 | 17 | 246 | 0.0 | 0.0 | 0.00 | 0.00 | 0.00 | 66 | 1011.9 |
| 20260505031011 | 17 | 233 | 0.0 | 0.0 | 0.00 | 0.00 | 0.00 | 65 | 1011.8 |
| 20260505030508 | 17 | 246 | 0.0 | 0.0 | 0.00 | 0.00 | 0.00 | 65 | 1011.7 |
| 20260505030026 | 17 | 247 | 0.0 | 0.0 | 0.00 | 0.00 | 0.00 | 65 | 1011.8 |
| 20260505025509 | 17 | 248 | 0.0 | 0.0 | 0.00 | 0.00 | 0.00 | 65 | 1011.7 |
| 20260505025009 | 17 | 248 | 0.0 | 0.0 | 0.00 | 0.00 | 0.00 | 65 | 1011.8 |
| 20260505024525 | 17 | 248 | 0.0 | 0.0 | 0.00 | 0.00 | 0.00 | 65 | 1011.8 |
| 20260505024003 | 17 | 248 | 0.0 | 0.0 | 0.00 | 0.00 | 0.00 | 65 | 1011.8 |
| 20260505023504 | 17 | 254 | 0.0 | 0.0 | 0.00 | 0.00 | 0.00 | 65 | 1011.7 |
| 20260505023020 | 17 | 257 | 0.0 | 0.0 | 0.00 | 0.00 | 0.00 | 66 | 1011.7 |
| 20260505022503 | 17 | 257 | 0.0 | 0.0 | 0.00 | 0.00 | 0.00 | 66 | 1011.8 |
| 20260505022003 | 17 | 257 | 0.0 | 0.0 | 0.00 | 0.00 | 0.00 | 66 | 1011.8 |
| 20260505021504 | 17 | 257 | 0.0 | 0.0 | 0.00 | 0.00 | 0.00 | 66 | 1011.6 |
| 20260505021006 | 17 | 256 | 0.0 | 0.0 | 0.00 | 0.00 | 0.00 | 66 | 1011.7 |
| 20260505020503 | 17 | 242 | 0.0 | 0.0 | 0.00 | 0.00 | 0.00 | 66 | 1011.8 |
| 20260505020022 | 17 | 242 | 0.0 | 0.0 | 0.00 | 0.00 | 0.00 | 66 | 1011.7 |
| 20260505015503 | 17 | 242 | 0.0 | 0.0 | 0.00 | 0.00 | 0.00 | 66 | 1011.7 |
| 20260505015003 | 17 | 242 | 0.0 | 0.0 | 0.00 | 0.00 | 0.00 | 65 | 1011.6 |
| 20260505014510 | 17 | 242 | 0.0 | 0.0 | 0.00 | 0.00 | 0.00 | 65 | 1011.6 |
| 20260505014008 | 17 | 242 | 0.0 | 0.0 | 0.00 | 0.00 | 0.00 | 64 | 1011.7 |
| 20260505013504 | 18 | 242 | 0.0 | 0.0 | 0.00 | 0.00 | 0.00 | 63 | 1011.7 |
| 20260505013021 | 18 | 242 | 0.0 | 0.0 | 0.00 | 0.00 | 0.00 | 62 | 1011.7 |
| 20260505012502 | 18 | 242 | 0.0 | 0.0 | 0.00 | 0.00 | 0.00 | 61 | 1011.7 |
| 20260505012004 | 18 | 242 | 0.0 | 0.0 | 0.00 | 0.00 | 0.00 | 61 | 1011.7 |
| 20260505011509 | 18 | 242 | 0.0 | 0.0 | 0.00 | 0.00 | 0.00 | 60 | 1011.7 |
| 20260505011004 | 18 | 242 | 0.0 | 0.0 | 0.00 | 0.00 | 0.00 | 60 | 1011.6 |
| 20260505010508 | 18 | 242 | 0.0 | 0.0 | 0.00 | 0.00 | 0.00 | 60 | 1011.7 |
| 20260505010004 | 18 | 242 | 0.0 | 0.0 | 0.00 | 0.00 | 0.00 | 59 | 1011.4 |
| 20260505005503 | 18 | 244 | 0.0 | 0.0 | 0.00 | 0.00 | 0.00 | 58 | 1011.3 |
| 20260505005006 | 18 | 245 | 0.0 | 0.0 | 0.00 | 0.00 | 0.00 | 57 | 1011.3 |
| 20260505004517 | 18 | 242 | 0.0 | 0.0 | 0.00 | 0.00 | 0.00 | 57 | 1011.3 |
| 20260505004003 | 18 | 244 | 0.0 | 0.0 | 0.00 | 0.00 | 0.00 | 56 | 1011.3 |
| 20260505003502 | 18 | 244 | 0.0 | 0.0 | 0.00 | 0.00 | 0.00 | 55 | 1011.4 |
| 20260505003012 | 19 | 246 | 0.0 | 0.0 | 0.00 | 0.00 | 0.00 | 54 | 1011.4 |
| 20260505002505 | 19 | 246 | 0.0 | 0.0 | 0.00 | 0.00 | 0.00 | 53 | 1011.4 |
| 20260505002007 | 20 | 246 | 0.0 | 0.0 | 0.00 | 0.00 | 0.00 | 51 | 1011.3 |
| 20260505001509 | 20 | 246 | 0.0 | 0.0 | 0.00 | 0.00 | 0.00 | 51 | 1011.4 |
| 20260505001007 | 20 | 246 | 0.0 | 0.0 | 0.00 | 0.00 | 0.00 | 50 | 1011.4 |
| 20260505000503 | 20 | 246 | 0.0 | 0.0 | 0.00 | 0.00 | 0.00 | 48 | 1011.4 |
| 20260505000026 | 21 | 246 | 0.0 | 0.0 | 0.00 | 0.00 | 0.00 | 48 | 1011.3 |
| 20260504235506 | 21 | 246 | 0.0 | 0.0 | 0.00 | 0.00 | 0.00 | 47 | 1011.2 |
| 20260504235006 | 21 | 246 | 0.0 | 0.0 | 0.00 | 0.00 | 0.00 | 46 | 1011.1 |
| 20260504234507 | 21 | 246 | 0.0 | 4.8 | 0.00 | 0.00 | 0.00 | 44 | 1011.0 |
| 20260504234003 | 22 | 245 | 0.0 | 4.8 | 0.00 | 0.00 | 0.00 | 43 | 1011.0 |
| 20260504233504 | 22 | 238 | 0.0 | 0.0 | 0.00 | 0.00 | 0.00 | 43 | 1011.0 |
| 20260504233010 | 22 | 235 | 0.0 | 0.0 | 0.00 | 0.00 | 0.00 | 42 | 1011.0 |
| 20260504232505 | 22 | 235 | 0.0 | 1.6 | 0.00 | 0.00 | 0.00 | 41 | 1011.0 |
| 20260504232003 | 22 | 235 | 0.0 | 9.7 | 0.00 | 0.00 | 0.00 | 40 | 1010.9 |
| 20260504231508 | 22 | 235 | 0.0 | 11.3 | 0.00 | 0.00 | 0.00 | 40 | 1010.9 |
| 20260504231004 | 22 | 254 | 1.6 | 12.9 | 0.00 | 0.00 | 0.00 | 40 | 1010.8 |
| 20260504230504 | 22 | 261 | 3.2 | 12.9 | 0.00 | 0.00 | 0.00 | 39 | 1010.8 |
| 20260504230014 | 23 | 221 | 0.0 | 12.9 | 0.00 | 0.00 | 0.00 | 39 | 1010.9 |
| 20260504225508 | 22 | 242 | 0.0 | 16.1 | 0.00 | 0.00 | 0.00 | 39 | 1010.9 |
| 20260504225012 | 22 | 228 | 3.2 | 16.1 | 0.00 | 0.00 | 0.00 | 38 | 1010.9 |
| 20260504224523 | 23 | 243 | 4.8 | 17.7 | 0.00 | 0.00 | 0.00 | 38 | 1010.9 |
| 20260504224011 | 23 | 234 | 3.2 | 17.7 | 0.00 | 0.00 | 0.00 | 38 | 1011.0 |
| 20260504223508 | 23 | 258 | 1.6 | 16.1 | 0.00 | 0.00 | 0.00 | 38 | 1011.0 |
| 20260504223008 | 23 | 243 | 4.8 | 16.1 | 0.00 | 0.00 | 0.00 | 37 | 1011.0 |
| 20260504222504 | 23 | 217 | 6.4 | 20.9 | 0.00 | 0.00 | 0.00 | 37 | 1011.0 |
| 20260504222004 | 23 | 239 | 9.7 | 20.9 | 0.00 | 0.00 | 0.00 | 37 | 1011.1 |
| 20260504221514 | 23 | 360 | 6.4 | 20.9 | 0.00 | 0.00 | 0.00 | 37 | 1011.1 |
| 20260504221008 | 22 | 179 | 8.0 | 20.9 | 0.00 | 0.00 | 0.00 | 37 | 1011.1 |
| 20260504220507 | 22 | 238 | 4.8 | 20.9 | 0.00 | 0.00 | 0.00 | 38 | 1011.1 |
| 20260504220018 | 22 | 240 | 3.2 | 16.1 | 0.00 | 0.00 | 0.00 | 38 | 1011.1 |
| 20260504215504 | 22 | 248 | 4.8 | 14.5 | 0.00 | 0.00 | 0.00 | 38 | 1011.1 |
| 20260504215008 | 23 | 246 | 3.2 | 22.5 | 0.00 | 0.00 | 0.00 | 37 | 1011.1 |
| 20260504214522 | 23 | 242 | 11.3 | 22.5 | 0.00 | 0.00 | 0.00 | 37 | 1011.1 |
| 20260504214009 | 22 | 360 | 9.7 | 16.1 | 0.00 | 0.00 | 0.00 | 39 | 1011.1 |
| 20260504213511 | 22 | 277 | 4.8 | 16.1 | 0.00 | 0.00 | 0.00 | 40 | 1011.1 |
| 20260504213026 | 22 | 248 | 8.0 | 16.1 | 0.00 | 0.00 | 0.00 | 41 | 1011.1 |
| 20260504212506 | 22 | 236 | 3.2 | 14.5 | 0.00 | 0.00 | 0.00 | 41 | 1011.1 |
| 20260504212002 | 22 | 251 | 0.0 | 12.9 | 0.00 | 0.00 | 0.00 | 41 | 1011.1 |
| 20260504211511 | 22 | 242 | 1.6 | 12.9 | 0.00 | 0.00 | 0.00 | 40 | 1011.2 |
| 20260504211004 | 22 | 242 | 0.0 | 16.1 | 0.00 | 0.00 | 0.00 | 39 | 1011.1 |
| 20260504210504 | 22 | 244 | 3.2 | 16.1 | 0.00 | 0.00 | 0.00 | 38 | 1011.1 |
| 20260504210021 | 23 | 236 | 4.8 | 9.7 | 0.00 | 0.00 | 0.00 | 38 | 1011.3 |
| 20260504205507 | 23 | 252 | 3.2 | 17.7 | 0.00 | 0.00 | 0.00 | 37 | 1011.1 |
| 20260504205007 | 23 | 240 | 3.2 | 17.7 | 0.00 | 0.00 | 0.00 | 35 | 1011.0 |
| 20260504204520 | 23 | 198 | 3.2 | 14.5 | 0.00 | 0.00 | 0.00 | 36 | 1011.0 |
| 20260504204008 | 23 | 248 | 6.4 | 14.5 | 0.00 | 0.00 | 0.00 | 35 | 1010.9 |
| 20260504203509 | 23 | 252 | 4.8 | 14.5 | 0.00 | 0.00 | 0.00 | 35 | 1010.8 |
| 20260504203007 | 23 | 234 | 3.2 | 12.9 | 0.00 | 0.00 | 0.00 | 35 | 1011.0 |
| 20260504202506 | 23 | 252 | 6.4 | 19.3 | 0.00 | 0.00 | 0.00 | 34 | 1011.1 |
| 20260504202003 | 23 | 240 | 1.6 | 19.3 | 0.00 | 0.00 | 0.00 | 35 | 1011.2 |
| 20260504201505 | 23 | 258 | 1.6 | 9.7 | 0.00 | 0.00 | 0.00 | 35 | 1011.2 |
| 20260504201002 | 23 | 90 | 0.0 | 12.9 | 0.00 | 0.00 | 0.00 | 36 | 1011.3 |
| 20260504200502 | 23 | 303 | 0.0 | 14.5 | 0.00 | 0.00 | 0.00 | 36 | 1011.4 |
| 20260504200006 | 23 | 225 | 3.2 | 14.5 | 0.00 | 0.00 | 0.00 | 36 | 1011.5 |
| 20260504195503 | 23 | 128 | 0.0 | 12.9 | 0.00 | 0.00 | 0.00 | 37 | 1011.5 |
| 20260504195003 | 23 | 232 | 3.2 | 16.1 | 0.00 | 0.00 | 0.00 | 38 | 1011.5 |
| 20260504194504 | 23 | 231 | 0.0 | 16.1 | 0.00 | 0.00 | 0.00 | 38 | 1011.5 |
| 20260504194002 | 23 | 248 | 0.0 | 19.3 | 0.00 | 0.00 | 0.00 | 36 | 1011.7 |
| 20260504193502 | 23 | 210 | 1.6 | 19.3 | 0.00 | 0.00 | 0.00 | 37 | 1011.7 |
| 20260504193004 | 23 | 212 | 6.4 | 17.7 | 0.00 | 0.00 | 0.00 | 37 | 1011.8 |
| 20260504192502 | 23 | 229 | 8.0 | 14.5 | 0.00 | 0.00 | 0.00 | 36 | 1011.9 |
| 20260504192003 | 23 | 151 | 0.0 | 20.9 | 0.00 | 0.00 | 0.00 | 37 | 1012.0 |
| 20260504191506 | 23 | 100 | 0.0 | 20.9 | 0.00 | 0.00 | 0.00 | 37 | 1012.0 |
| 20260504191003 | 23 | 259 | 8.0 | 20.9 | 0.00 | 0.00 | 0.00 | 36 | 1012.1 |
| 20260504190506 | 24 | 360 | 9.7 | 19.3 | 0.00 | 0.00 | 0.00 | 35 | 1012.1 |
| 20260504190004 | 24 | 182 | 1.6 | 24.1 | 0.00 | 0.00 | 0.00 | 35 | 1012.0 |
| 20260504185504 | 25 | 189 | 4.8 | 24.1 | 0.00 | 0.00 | 0.00 | 34 | 1012.2 |
| 20260504185003 | 25 | 243 | 4.8 | 16.1 | 0.00 | 0.00 | 0.00 | 34 | 1012.3 |
| 20260504184504 | 25 | 244 | 4.8 | 16.1 | 0.00 | 0.00 | 0.00 | 35 | 1012.4 |
| 20260504184003 | 25 | 233 | 6.4 | 16.1 | 0.00 | 0.00 | 0.00 | 34 | 1012.4 |
| 20260504183504 | 25 | 242 | 4.8 | 16.1 | 0.00 | 0.00 | 0.00 | 34 | 1012.6 |
| 20260504183006 | 25 | 251 | 3.2 | 16.1 | 0.00 | 0.00 | 0.00 | 34 | 1012.8 |
| 20260504182502 | 25 | 257 | 4.8 | 14.5 | 0.00 | 0.00 | 0.00 | 35 | 1012.8 |
| 20260504182003 | 24 | 216 | 0.0 | 20.9 | 0.00 | 0.00 | 0.00 | 36 | 1012.8 |
| 20260504181504 | 24 | 244 | 0.0 | 20.9 | 0.00 | 0.00 | 0.00 | 35 | 1012.8 |
| 20260504181003 | 24 | 254 | 0.0 | 14.5 | 0.00 | 0.00 | 0.00 | 34 | 1012.9 |
| 20260504180503 | 23 | 240 | 0.0 | 19.3 | 0.00 | 0.00 | 0.00 | 36 | 1013.0 |
| 20260504180008 | 23 | 217 | 4.8 | 19.3 | 0.00 | 0.00 | 0.00 | 35 | 1012.9 |
| 20260504175502 | 23 | 227 | 1.6 | 16.1 | 0.00 | 0.00 | 0.00 | 36 | 1013.0 |
| 20260504175003 | 23 | 321 | 0.0 | 14.5 | 0.00 | 0.00 | 0.00 | 35 | 1013.0 |
| 20260504174504 | 23 | 181 | 0.0 | 17.7 | 0.00 | 0.00 | 0.00 | 36 | 1013.0 |
| 20260504174004 | 23 | 248 | 3.2 | 17.7 | 0.00 | 0.00 | 0.00 | 36 | 1013.1 |
| 20260504173504 | 23 | 236 | 9.7 | 17.7 | 0.00 | 0.00 | 0.00 | 36 | 1013.2 |
| 20260504173006 | 23 | 217 | 0.0 | 11.3 | 0.00 | 0.00 | 0.00 | 38 | 1013.2 |
| 20260504172503 | 23 | 243 | 0.0 | 11.3 | 0.00 | 0.00 | 0.00 | 37 | 1013.3 |
| 20260504172004 | 23 | 211 | 1.6 | 9.7 | 0.00 | 0.00 | 0.00 | 38 | 1013.4 |
| 20260504171508 | 23 | 225 | 0.0 | 9.7 | 0.00 | 0.00 | 0.00 | 38 | 1013.4 |
| 20260504171003 | 22 | 214 | 0.0 | 14.5 | 0.00 | 0.00 | 0.00 | 38 | 1013.4 |
| 20260504170503 | 22 | 234 | 0.0 | 16.1 | 0.00 | 0.00 | 0.00 | 36 | 1013.5 |
| 20260504151003 | 20 | 234 | 3.2 | 12.9 | 0.00 | 0.00 | 0.00 | 44 | 1014.5 |
| 20260504150504 | 19 | 221 | 1.6 | 9.7 | 0.00 | 0.00 | 0.00 | 44 | 1014.6 |
| 20260504141004 | 16 | 228 | 0.0 | 8.0 | 0.00 | 0.00 | 0.00 | 53 | 1014.6 |
| 20260504140504 | 16 | 228 | 0.0 | 14.5 | 0.00 | 0.00 | 0.00 | 55 | 1014.6 |
| 20260504130503 | 14 | 215 | 0.0 | 16.1 | 0.00 | 0.00 | 0.00 | 62 | 1015.3 |
| 20260504110503 | 11 | 235 | 4.8 | 16.1 | 0.00 | 0.00 | 0.00 | 67 | 1015.8 |
| 20260504100503 | 11 | 250 | 1.6 | 16.1 | 0.00 | 0.00 | 0.00 | 69 | 1015.8 |
| 20260504082006 | 11 | 257 | 4.8 | 12.9 | 0.00 | 0.00 | 0.00 | 71 | 1015.9 |
| 20260504081516 | 11 | 234 | 0.0 | 11.3 | 0.00 | 0.00 | 0.00 | 71 | 1016.0 |
| 20260504081008 | 11 | 244 | 4.8 | 11.3 | 0.00 | 0.00 | 0.00 | 71 | 1015.9 |
| 20260504080507 | 11 | 246 | 3.2 | 12.9 | 0.00 | 0.00 | 0.00 | 71 | 1015.9 |